SL-14 R/B

Satellite information

Favourite Embed

Satellite Type and Status

ROCKET BODYIN ORBIT

Key statistics

Satellite SL-14 R/B at a glance.

Uptime

13696

Days in orbit

Revolutions

≈ 14.9

Per day

Orbit

LEO

Low Earth Orbit

Inclination

82.5

Latest

Satellite identification and parameters

Extended collection of information and parameters for SL-14 R/B.

Object identification

Identified? True

Debris? False

Object name: SL-14 R/B

International designator: 1988-050B

Object number (NORAD): 19211

Object ID (CCSDS): 19211

Country: COMMONWEALTH OF INDEPENDENT STATES (CIS)

Current information (Y/N): Y

RCS size: LARGE

Orbital parameters

Period: 96.952 minutes

Inclination: 82.5251 deg

SMA: 6990.869 km

Apoapsis: 627.012 km

Periapsis: 598.456 km

RAAN: 180.6944 deg

Eccentricy: 0.0020424

Argument of periapsis: 338.7186 deg

Mean anomaly: 21.3178 deg

Mean motion: 14.85272114 rev/day

Mean motion (dot): 0.00000714 rev/day2

B* drag term: 0.000080162935 1/REarth

Two-line elements (TLE)

Creation date: Dec. 12, 2025, 10:14 a.m.

Reference frame: TEME

Reference center: EARTH

Epoch: Dec. 12, 2025, 12:47 a.m. UTC

TLE line 0: 0 SL-14 R/B

TLE line 1: 1 19211U 88050B 25346.03267549 .00000714 00000-0 80163-4 0 9995

TLE line 2: 2 19211 82.5251 180.6944 0020424 338.7186 21.3178 14.85272114 5292

Live tracking on map

Real-time ground track for satellite SL-14 R/B.

In-orbit conjunctions

A list of the most updated potential collisions computed for object SL-14 R/B.

Target Orbit TCA Probability of collision Miss distance Type
THOR ABLESTAR DEB LEO 2025-01-08 04:20:40 0.0006374217 188.0 (m) DEBRIS
DUMMY MASS 1 LEO 2024-09-14 06:40:31 0.0008760614 320.0 (m) PAYLOAD

Associated space launch

Tselina-D satellites provided detailed observation of radio sources detected by the smaller Tselina-O satellites as part of the Tselina ELINT system.

SL-14 R/B was lifted into orbit during the mission ‘Tsiklon-3 | Tselina-D 65’, on board a Tsiklon-3 space rocket.

The launch took place on June 14, 1988, 3:18 a.m. from 32/2.

For more information about the launch, click the button.

Launch to space Tsiklon-3 | Tselina-D 65
Tsiklon-3 | Tselina-D 65

Agency: N/A

Status: Launch Successful

Launch date: June 14, 1988, 3:18 a.m. UTC

Rocket: Tsiklon-3

Launch pad: 32/2

Location: Plesetsk Cosmodrome, Russian Federation

...

Latest news about this satellite

There are no fresh news available about this satellite. Check back as we update our databases every day.


Newsletter sign-up

Weekly statistics, charts and insights to help you stay on top of the space industry.